| time (UTC) | temp C | wind direction | speed KPH | gust KPH | rain 1hr cm | rain 24hr cm | rain mn cm | humidity % | barometer mb |
| 20260503005118 | 9 | 0.0 | 0.0 | 0.00 | 0.00 | 0.00 | 82 | 1019.9 | |
| 20260503004116 | 9 | 0.0 | 0.0 | 0.00 | 0.00 | 0.00 | 82 | 1020.0 | |
| 20260503003117 | 9 | 0.0 | 0.0 | 0.00 | 0.00 | 0.00 | 82 | 1020.2 | |
| 20260503002117 | 9 | 0.0 | 0.0 | 0.00 | 0.00 | 0.00 | 81 | 1020.1 | |
| 20260503001123 | 10 | 0.0 | 0.0 | 0.00 | 0.00 | 0.00 | 81 | 1020.2 | |
| 20260503000118 | 10 | 0.0 | 0.0 | 0.00 | 0.00 | 0.00 | 80 | 1020.4 | |
| 20260502235118 | 10 | 0.0 | 0.0 | 0.00 | 0.00 | 0.00 | 80 | 1020.4 | |
| 20260502234118 | 10 | 0.0 | 0.0 | 0.00 | 0.00 | 0.00 | 79 | 1020.4 | |
| 20260502233116 | 10 | 0.0 | 0.0 | 0.00 | 0.00 | 0.00 | 79 | 1020.6 | |
| 20260502232118 | 10 | 0.0 | 0.0 | 0.00 | 0.00 | 0.00 | 79 | 1020.6 | |
| 20260502231118 | 10 | 0.0 | 0.0 | 0.00 | 0.00 | 0.00 | 78 | 1020.7 | |
| 20260502230118 | 10 | 0.0 | 0.0 | 0.00 | 0.00 | 0.00 | 79 | 1020.7 | |
| 20260502225117 | 11 | 0.0 | 0.0 | 0.00 | 0.00 | 0.00 | 78 | 1020.8 | |
| 20260502224138 | 11 | 0.0 | 0.0 | 0.00 | 0.00 | 0.00 | 78 | 1020.8 | |
| 20260502223154 | 11 | 0.0 | 0.0 | 0.00 | 0.00 | 0.00 | 77 | 1020.9 | |
| 20260502222116 | 11 | 0.0 | 0.0 | 0.00 | 0.00 | 0.00 | 78 | 1020.9 | |
| 20260502221239 | 11 | 0.0 | 0.0 | 0.00 | 0.00 | 0.00 | 78 | 1020.9 | |
| 20260502221018 | 11 | 0.0 | 0.0 | 0.00 | 0.00 | 0.00 | 77 | 1021.0 | |
| 20260502220059 | 11 | 0.0 | 0.0 | 0.00 | 0.00 | 0.00 | 76 | 1021.0 | |
| 20260502215837 | 11 | 0.0 | 0.0 | 0.00 | 0.00 | 0.00 | 76 | 1021.0 | |
| 20260502214820 | 11 | 0.0 | 0.0 | 0.00 | 0.00 | 0.00 | 76 | 1021.0 | |
| 20260502213824 | 12 | 0.0 | 0.0 | 0.00 | 0.00 | 0.00 | 74 | 1021.0 | |
| 20260502212817 | 12 | 0.0 | 0.0 | 0.00 | 0.00 | 0.00 | 75 | 1020.9 | |
| 20260502211819 | 12 | 0.0 | 0.0 | 0.00 | 0.00 | 0.00 | 75 | 1021.0 | |
| 20260502210817 | 12 | 0.0 | 0.0 | 0.00 | 0.00 | 0.00 | 74 | 1021.0 | |
| 20260502205817 | 12 | 0.0 | 0.0 | 0.00 | 0.00 | 0.00 | 74 | 1021.0 | |
| 20260502204817 | 12 | 0.0 | 0.0 | 0.00 | 0.00 | 0.00 | 74 | 1021.1 | |
| 20260502203820 | 12 | 0.0 | 0.0 | 0.00 | 0.00 | 0.00 | 73 | 1021.1 | |
| 20260502202824 | 12 | 0.0 | 0.0 | 0.00 | 0.00 | 0.00 | 73 | 1021.1 | |
| 20260502201855 | 13 | 0.0 | 0.0 | 0.00 | 0.00 | 0.00 | 72 | 1021.1 | |
| 20260502200819 | 13 | 0.0 | 0.0 | 0.00 | 0.00 | 0.00 | 71 | 1021.2 | |
| 20260502195837 | 13 | 0.0 | 0.0 | 0.00 | 0.00 | 0.00 | 70 | 1021.1 | |
| 20260502194818 | 14 | 0.0 | 0.0 | 0.00 | 0.00 | 0.00 | 69 | 1021.2 | |
| 20260502193817 | 14 | 0.0 | 0.0 | 0.00 | 0.00 | 0.00 | 68 | 1021.1 | |
| 20260502192839 | 15 | 0.0 | 0.0 | 0.00 | 0.00 | 0.00 | 66 | 1021.0 | |
| 20260502191855 | 15 | 0.0 | 0.0 | 0.00 | 0.00 | 0.00 | 65 | 1020.9 | |
| 20260502190819 | 16 | 0.0 | 0.0 | 0.00 | 0.00 | 0.00 | 63 | 1020.8 | |
| 20260502185819 | 16 | 0.0 | 0.0 | 0.00 | 0.00 | 0.00 | 61 | 1020.8 | |
| 20260502184818 | 17 | 0.0 | 0.0 | 0.00 | 0.00 | 0.00 | 58 | 1020.8 | |
| 20260502183817 | 17 | 0.0 | 0.0 | 0.00 | 0.00 | 0.00 | 56 | 1020.7 | |
| 20260502182817 | 18 | 0.0 | 0.0 | 0.00 | 0.00 | 0.00 | 53 | 1020.5 | |
| 20260502181819 | 18 | 0.0 | 0.0 | 0.00 | 0.00 | 0.00 | 51 | 1020.5 | |
| 20260502180855 | 19 | 0.0 | 0.0 | 0.00 | 0.00 | 0.00 | 49 | 1020.4 | |
| 20260502163839 | 22 | 203 | 9.7 | 14.5 | 0.00 | 0.00 | 0.00 | 37 | 1020.1 |
| 20260502162856 | 22 | 225 | 9.7 | 11.3 | 0.00 | 0.00 | 0.00 | 37 | 1020.2 |
| 20260502161817 | 22 | 248 | 8.0 | 12.9 | 0.00 | 0.00 | 0.00 | 37 | 1020.3 |
| 20260502160837 | 22 | 225 | 11.3 | 19.3 | 0.00 | 0.00 | 0.00 | 36 | 1020.3 |
| 20260502151819 | 23 | 203 | 9.7 | 16.1 | 0.00 | 0.00 | 0.00 | 37 | 1020.6 |
| 20260502150818 | 23 | 203 | 12.9 | 16.1 | 0.00 | 0.00 | 0.00 | 37 | 1020.7 |
| 20260502122839 | 25 | 270 | 1.6 | 9.7 | 0.00 | 0.00 | 0.00 | 34 | 1022.5 |
| 20260502121820 | 24 | 248 | 4.8 | 11.3 | 0.00 | 0.00 | 0.00 | 32 | 1022.6 |
| 20260502120916 | 25 | 248 | 4.8 | 14.5 | 0.00 | 0.00 | 0.00 | 32 | 1022.7 |
| 20260502115818 | 25 | 270 | 8.0 | 14.5 | 0.00 | 0.00 | 0.00 | 33 | 1022.8 |
| 20260502114900 | 25 | 0.0 | 6.4 | 0.00 | 0.00 | 0.00 | 33 | 1022.9 | |
| 20260502113818 | 24 | 225 | 1.6 | 4.8 | 0.00 | 0.00 | 0.00 | 32 | 1023.0 |
| 20260502112819 | 25 | 315 | 6.4 | 11.3 | 0.00 | 0.00 | 0.00 | 37 | 1023.1 |
| 20260502111819 | 24 | 248 | 8.0 | 17.7 | 0.00 | 0.00 | 0.00 | 33 | 1023.2 |
| 20260502110940 | 24 | 248 | 1.6 | 4.8 | 0.00 | 0.00 | 0.00 | 36 | 1023.3 |
| 20260502110645 | 24 | 0.0 | 1.6 | 0.00 | 0.00 | 0.00 | 33 | 1023.4 | |
| 20260502105651 | 24 | 293 | 1.6 | 4.8 | 0.00 | 0.00 | 0.00 | 34 | 1023.5 |
| 20260502104714 | 23 | 203 | 3.2 | 6.4 | 0.00 | 0.00 | 0.00 | 33 | 1023.6 |
| 20260502103616 | 24 | 270 | 3.2 | 8.0 | 0.00 | 0.00 | 0.00 | 33 | 1023.8 |
| 20260502102618 | 23 | 0.0 | 0.0 | 0.00 | 0.00 | 0.00 | 35 | 1023.9 | |
| 20260502101654 | 23 | 0.0 | 4.8 | 0.00 | 0.00 | 0.00 | 34 | 1024.0 | |
| 20260502100636 | 23 | 203 | 1.6 | 8.0 | 0.00 | 0.00 | 0.00 | 35 | 1024.1 |
| 20260502090615 | 22 | 0.0 | 0.0 | 0.00 | 0.00 | 0.00 | 40 | 1024.7 | |
| 20260502070654 | 16 | 0.0 | 0.0 | 0.00 | 0.00 | 0.00 | 61 | 1025.5 | |
| 20260502065618 | 15 | 0.0 | 0.0 | 0.00 | 0.00 | 0.00 | 64 | 1025.6 | |
| 20260502064616 | 14 | 0.0 | 0.0 | 0.00 | 0.00 | 0.00 | 67 | 1025.7 | |
| 20260502063616 | 13 | 0.0 | 0.0 | 0.00 | 0.00 | 0.00 | 71 | 1025.7 | |
| 20260502062617 | 12 | 0.0 | 0.0 | 0.00 | 0.00 | 0.00 | 73 | 1025.8 | |
| 20260502061618 | 11 | 0.0 | 0.0 | 0.00 | 0.00 | 0.00 | 75 | 1025.9 | |
| 20260502060654 | 10 | 0.0 | 0.0 | 0.00 | 0.00 | 0.00 | 77 | 1025.8 | |
| 20260502055618 | 10 | 0.0 | 0.0 | 0.00 | 0.00 | 0.00 | 78 | 1025.9 | |
| 20260502054638 | 9 | 0.0 | 0.0 | 0.00 | 0.00 | 0.00 | 81 | 1025.9 | |
| 20260502053654 | 8 | 0.0 | 0.0 | 0.00 | 0.00 | 0.00 | 83 | 1025.9 | |
| 20260502052616 | 8 | 0.0 | 0.0 | 0.00 | 0.00 | 0.00 | 84 | 1025.9 | |
| 20260502051616 | 7 | 0.0 | 0.0 | 0.00 | 0.00 | 0.00 | 84 | 1025.9 | |
| 20260502050638 | 7 | 0.0 | 0.0 | 0.00 | 0.00 | 0.00 | 84 | 1025.9 | |
| 20260502045618 | 7 | 0.0 | 0.0 | 0.00 | 0.00 | 0.00 | 85 | 1025.9 | |
| 20260502044654 | 6 | 0.0 | 0.0 | 0.00 | 0.00 | 0.00 | 84 | 1025.8 | |
| 20260502043618 | 6 | 0.0 | 0.0 | 0.00 | 0.00 | 0.00 | 85 | 1025.8 | |
| 20260502042619 | 6 | 293 | 1.6 | 4.8 | 0.00 | 0.00 | 0.00 | 84 | 1025.8 |
| 20260502041715 | 6 | 0.0 | 0.0 | 0.00 | 0.00 | 0.00 | 84 | 1025.9 | |
| 20260502040616 | 6 | 0.0 | 0.0 | 0.00 | 0.00 | 0.00 | 84 | 1025.9 | |
| 20260502035654 | 6 | 0.0 | 0.0 | 0.00 | 0.00 | 0.00 | 83 | 1025.9 | |
| 20260502034616 | 6 | 0.0 | 0.0 | 0.00 | 0.00 | 0.00 | 83 | 1025.9 | |
| 20260502033717 | 6 | 0.0 | 0.0 | 0.00 | 0.00 | 0.00 | 84 | 1025.8 | |
| 20260502033236 | 6 | 0.0 | 0.0 | 0.00 | 0.00 | 0.00 | 84 | 1025.8 | |
| 20260502032218 | 6 | 0.0 | 0.0 | 0.00 | 0.00 | 0.00 | 83 | 1025.8 | |
| 20260502031238 | 7 | 0.0 | 0.0 | 0.00 | 0.00 | 0.00 | 82 | 1025.8 | |
| 20260502030218 | 7 | 0.0 | 0.0 | 0.00 | 0.00 | 0.00 | 82 | 1025.7 | |
| 20260502025223 | 7 | 0.0 | 0.0 | 0.00 | 0.00 | 0.00 | 82 | 1025.7 | |
| 20260502024218 | 7 | 0.0 | 0.0 | 0.00 | 0.00 | 0.00 | 82 | 1025.8 | |
| 20260502023216 | 7 | 0.0 | 0.0 | 0.00 | 0.00 | 0.00 | 81 | 1025.9 | |
| 20260502022216 | 7 | 0.0 | 0.0 | 0.00 | 0.00 | 0.00 | 81 | 1025.9 | |
| 20260502021218 | 7 | 0.0 | 0.0 | 0.00 | 0.00 | 0.00 | 81 | 1025.8 | |
| 20260502020216 | 7 | 0.0 | 3.2 | 0.00 | 0.00 | 0.00 | 80 | 1025.9 | |
| 20260502015218 | 7 | 0.0 | 0.0 | 0.00 | 0.00 | 0.00 | 79 | 1025.8 | |
| 20260502014224 | 7 | 0.0 | 0.0 | 0.00 | 0.00 | 0.00 | 79 | 1025.9 | |
| 20260502013218 | 7 | 0.0 | 0.0 | 0.00 | 0.00 | 0.00 | 80 | 1025.9 | |
| 20260502012216 | 7 | 0.0 | 0.0 | 0.00 | 0.00 | 0.00 | 80 | 1026.0 | |
| 20260502011218 | 7 | 0.0 | 0.0 | 0.00 | 0.00 | 0.00 | 79 | 1026.1 | |
| 20260502010304 | 7 | 0.0 | 0.0 | 0.00 | 0.00 | 0.00 | 80 | 1026.1 | |
| 20260502005618 | 7 | 0.0 | 0.0 | 0.00 | 0.00 | 0.00 | 81 | 1026.2 |